FLOCK 4S-42 (47612 NORAD) Tracking and Keplerian Element Data

This shows tracking and keplerian element data for the satellite.

Feedback or suggestion? Click here.




ElementValue
Catalog47612
NameFLOCK 4S-42
Epoch Orbit1198
Epoch Day101.88217271
Epoch Year2021
RAAN164.27
Inclination97.4997
Eccentricity0.0010912
Argument of Perigee348.7095
Mean Anonmoly11.3889
Mean Motion15.12503594
Decay Rate1.314E-05
L11 47612U 21006EQ 21101.88217271 .00001314 00000-0 79116-4 0 9997
L22 47612 97.4997 164.2700 0010912 348.7095 11.3889 15.12503594 11980

Live tracking and technical data element details for FLOCK 4S-42 (NORAD 47612). FLOCK 4S-42 can be tracked NOW for your location showing map with azimuth and elevation plus other details from your city location.

Track the satellite on the map from your city or location and see movement details for azimuth, elevation, latitude, longitude, range, height, and movement on the map or in text.







IsCatalogInMostPopularTable: catalog: 47612, numindb: 14
Update: records affected: 1



GetName: 47612 FLOCK 4S-42

Hit Count: updated at: Tue, 13 Apr 2021 05:23:18 GMT